{"data":{"norad_id":65364,"intl_designator":"2025-190P","name":"STARLINK-34729","alt_names":[],"object_type":"PAYLOAD","status":"ACTIVE","operator":null,"country":"US","launch_date":"2025-08-28","launch_site_code":"AFETR","launch_vehicle":null,"mission":null,"orbit_class":"UNKNOWN","rcs_meters":null,"size_class":null,"mass_kg":null,"dimensions":null,"purposes":["comms"],"wikipedia_slug":null,"has_3d_model":false,"image_url":null,"decayed_at":null,"tle_current":{"epoch":"2026-09-20T12:00:21.295008Z","epoch_age_seconds":118175,"freshness":"FRESH","line1":"1 65364U 25190P   26263.50024647  .00018417  00000+0  55478-3 0  9990","line2":"2 65364  53.1596 341.7430 0001180  87.1157 272.9981 15.34405501 60020","mean_motion":15.34405501,"eccentricity":0.000118,"inclination_deg":53.1596,"raan_deg":341.743,"arg_perigee_deg":87.1157,"mean_anomaly_deg":272.9981,"bstar":0.00055478,"rev_number":6002,"period_min":93.847421627564,"perigee_km":461.87967290564,"apogee_km":463.4941073437,"semimajor_km":6840.8238901247,"source":"CELESTRAK","updated_at":"2026-09-21T09:00:35.577748Z"}}}